Theta_e
337 333 328 330 332 333 335 334 335 334 334 336 337 338 339 339 338 338 337 337 337 335 333 333 333 333 334 334 333 333 334 333 332 333 334 336 338 339 339 340 340 339 338 337 334 331 332 331 331 330 329 330 331 331 330 331 331 331 332 331 331 332 332 333 332 332 332 331 330 329 327 327 327 327 326 324 321 320 323 325 326 327 328 328 327
336 331 328 331 334 334 335 334 335 333 333 336 338 338 338 338 338 337 338 338 337 335 333 333 333 333 333 333 333 333 332 332 332 332 333 333 334 336 337 338 338 338 335 334 332 331 333 334 332 330 330 331 331 331 330 331 331 331 332 331 331 331 331 331 331 330 329 326 325 325 325 326 326 327 326 324 321 319 321 324 325 327 328 327 326
336 331 327 332 334 333 335 334 335 333 333 337 338 338 338 338 337 337 338 338 337 336 334 333 334 333 333 333 332 332 332 332 332 331 332 332 332 332 334 335 336 337 335 333 332 332 333 333 332 331 331 331 331 331 331 331 331 331 331 330 330 330 330 330 329 327 326 324 324 325 327 328 327 327 326 325 323 322 322 324 326 327 327 327 325
335 329 328 333 333 333 335 335 334 333 336 338 338 338 338 338 337 337 338 338 337 336 333 332 333 333 333 332 332 332 332 332 332 332 332 332 332 331 331 332 333 334 333 332 332 332 332 333 332 332 331 330 331 331 331 331 331 330 330 330 329 330 329 329 328 327 326 327 328 328 329 330 329 328 326 326 326 325 324 325 326 326 326 326 325
333 327 327 331 331 334 335 335 334 335 337 338 338 339 338 337 337 337 337 337 337 334 331 332 332 332 332 332 332 333 332 331 331 331 331 331 332 332 332 331 332 332 332 332 332 332 332 331 331 331 330 331 331 331 330 330 330 329 329 329 329 329 328 328 327 326 326 327 327 328 328 328 328 329 327 326 326 326 325 324 324 325 325 325 325
331 325 327 328 331 334 335 335 334 336 338 338 339 339 338 338 336 335 336 336 335 333 332 333 332 331 330 330 332 332 331 331 331 331 331 331 331 331 331 331 331 331 331 331 331 332 331 330 331 332 331 331 331 330 329 328 328 328 329 329 329 329 328 327 326 326 325 325 325 325 325 324 324 326 328 326 326 326 326 324 322 323 324 324 324
328 324 325 327 332 334 334 334 335 338 338 339 339 338 339 338 337 335 335 336 334 333 332 332 332 331 330 331 332 332 331 331 332 331 331 331 331 331 331 331 330 330 330 331 332 332 331 331 332 332 331 330 329 328 327 327 328 328 329 329 329 328 327 326 325 325 324 324 323 323 322 322 322 323 326 326 326 326 324 323 321 322 323 322 322
325 323 324 329 333 334 333 334 337 339 339 339 339 338 338 338 337 334 332 333 332 332 332 332 332 332 332 332 330 331 331 331 331 331 331 331 331 331 330 330 330 330 330 331 332 331 331 331 331 331 330 328 327 327 327 328 328 328 328 328 327 326 326 325 324 324 323 322 322 322 323 323 324 324 325 324 325 323 322 322 321 322 321 321 323
323 321 326 332 334 335 334 335 338 338 339 338 338 338 338 337 334 330 327 328 330 331 332 332 331 331 332 331 329 330 331 331 330 329 330 330 330 330 330 330 330 330 330 331 331 331 331 332 331 331 330 328 327 327 327 327 327 328 327 327 326 326 325 325 324 322 322 322 322 323 324 325 325 325 324 324 323 322 322 322 321 321 319 320 323
320 320 328 334 335 336 335 335 338 337 338 337 338 338 337 335 332 329 325 326 331 332 332 330 329 331 331 330 330 331 331 330 330 329 330 330 329 330 330 330 330 330 330 330 331 331 330 331 331 330 330 328 328 328 328 327 326 326 327 327 326 325 324 323 322 321 321 321 322 323 325 325 326 326 325 324 322 322 322 322 322 320 319 321 324
319 322 330 335 334 335 334 335 337 336 337 337 337 337 335 333 331 330 324 327 332 332 332 330 329 332 331 331 330 330 330 329 330 330 331 330 330 329 329 329 329 328 329 330 331 331 330 330 330 330 329 328 328 328 327 326 326 326 326 326 325 325 323 322 321 320 320 320 321 322 323 324 325 326 325 324 323 322 321 321 321 320 321 323 323
320 324 331 334 333 335 334 334 335 335 336 336 337 335 333 332 331 330 325 327 331 331 331 330 331 331 330 331 330 328 328 328 329 330 330 330 330 330 329 329 329 329 329 330 331 331 330 330 330 328 328 328 328 327 326 325 325 325 325 324 324 323 322 321 321 320 320 320 321 321 322 322 322 324 324 323 322 321 320 321 320 319 321 321 321
320 324 330 333 332 334 333 333 333 334 335 335 336 335 332 332 332 331 327 327 331 330 329 331 332 330 330 331 329 327 327 328 329 329 329 329 329 329 329 329 328 328 329 330 330 330 330 330 328 327 328 328 327 326 325 325 324 324 324 323 323 322 322 322 321 321 321 321 322 322 322 322 322 322 322 322 321 320 320 321 320 320 319 319 320
319 323 329 331 332 333 332 332 332 333 334 334 335 335 333 333 332 331 328 326 330 330 329 331 330 328 329 330 329 327 327 328 329 328 329 328 328 328 328 329 327 327 328 329 330 330 329 328 327 327 327 326 326 326 325 325 324 324 323 323 323 323 322 322 322 321 321 321 322 322 322 322 322 321 321 322 321 320 320 321 320 319 318 318 319
317 321 326 329 331 331 331 331 332 333 333 334 334 334 334 333 330 330 327 324 327 329 328 330 329 327 328 329 329 328 327 327 329 328 328 328 328 328 328 327 326 326 328 328 329 329 329 327 326 326 326 325 325 325 325 324 324 324 323 323 323 322 322 322 322 321 320 321 321 321 321 322 321 321 321 321 320 319 319 319 319 319 318 318 318
316 318 323 326 328 329 330 330 331 331 331 334 334 334 334 333 331 330 327 323 327 330 328 329 329 329 330 329 329 329 326 326 329 328 328 328 328 328 327 327 326 327 327 326 328 328 328 327 326 325 325 325 325 325 324 324 324 324 323 323 323 322 322 322 322 322 321 320 320 320 320 322 322 321 321 320 319 319 319 319 318 318 319 319 319
316 317 319 323 326 328 328 328 328 327 328 331 333 334 333 332 331 330 327 324 328 329 328 328 328 328 329 329 329 329 325 324 328 328 328 327 326 326 326 326 326 326 326 326 327 327 327 326 325 325 325 325 324 324 324 324 324 323 323 323 323 322 322 322 322 322 321 321 320 320 320 321 321 321 321 320 319 320 320 318 318 318 318 319 319
317 315 317 320 324 326 326 327 327 326 327 328 331 333 333 332 331 328 324 325 328 328 328 327 326 327 328 328 328 328 325 322 324 325 326 325 325 327 327 327 326 326 326 326 326 325 325 325 324 324 325 325 324 324 324 324 323 323 323 323 323 322 322 322 322 322 322 321 320 319 319 320 320 320 320 320 320 320 319 318 318 318 317 317 319
318 316 315 317 322 325 325 327 329 329 328 327 327 330 331 331 330 325 320 323 326 326 327 327 326 327 328 328 327 327 326 324 323 322 322 322 323 323 325 326 326 326 325 324 324 323 323 323 323 323 324 324 324 324 323 323 323 323 322 322 322 321 322 322 322 321 321 321 320 319 320 320 321 321 321 321 321 319 319 319 318 318 317 317 318
319 317 315 315 321 323 324 328 330 330 329 327 326 327 328 329 327 322 320 321 322 323 324 326 325 325 327 327 326 326 325 324 323 321 321 321 322 321 320 324 325 324 323 322 321 321 321 321 322 322 323 323 322 323 323 322 322 321 321 321 320 320 321 322 321 321 321 321 320 319 319 320 320 322 322 321 321 320 319 319 319 318 318 317 317
322 319 317 315 318 321 323 326 328 329 327 324 326 326 325 325 324 322 321 320 321 322 320 322 323 323 325 325 325 324 323 323 322 321 321 321 322 320 318 320 322 321 319 319 319 320 320 320 320 320 319 319 319 320 321 321 321 320 320 320 320 320 320 321 321 321 321 321 321 320 319 319 319 322 322 321 321 320 319 319 319 319 318 318 317
324 321 319 316 316 318 321 323 324 325 323 320 321 324 324 324 324 323 322 319 320 321 320 321 322 322 323 323 322 321 320 320 320 320 321 321 320 320 319 317 318 318 317 317 318 318 318 317 317 317 317 317 318 319 320 320 320 320 321 321 320 320 320 321 321 321 321 321 322 320 320 319 319 321 322 322 322 321 320 319 319 319 318 318 317
324 322 321 319 317 317 318 319 320 321 321 320 318 320 323 324 323 322 321 319 318 319 319 320 321 321 321 321 320 320 319 319 319 319 319 319 319 319 318 316 316 316 317 317 317 317 317 317 317 317 317 318 319 320 321 321 321 321 321 321 321 320 321 321 321 321 321 321 322 321 321 320 320 321 322 323 323 322 321 320 320 319 319 318 317
324 323 322 322 320 319 318 318 318 318 319 319 318 317 318 319 319 318 319 319 318 317 316 317 318 320 320 320 320 319 319 318 317 317 317 317 317 319 318 316 316 315 316 317 317 317 317 317 317 317 318 319 320 320 321 321 321 321 321 321 321 321 320 320 320 320 320 321 321 321 321 321 321 321 322 323 323 322 322 321 321 320 319 319 318
325 324 323 323 322 321 320 319 318 318 317 317 317 317 316 316 316 315 316 317 319 317 315 315 316 317 319 318 318 317 318 317 316 315 316 315 315 317 317 316 316 315 316 316 317 317 317 317 317 318 319 320 321 321 321 321 321 321 321 321 321 321 321 320 320 320 320 320 320 321 321 321 321 321 322 323 323 323 323 322 322 321 320 320 319
327 326 325 324 324 322 322 321 320 320 319 318 317 316 316 316 316 315 315 315 317 318 315 314 315 317 317 317 316 318 319 320 319 318 317 314 312 314 316 316 315 315 315 316 316 316 317 317 318 320 321 321 321 321 321 321 321 321 321 321 321 321 321 321 320 320 319 319 319 320 320 320 321 320 321 322 322 323 323 323 322 322 322 322 321
330 329 328 327 326 325 323 322 322 321 321 320 319 317 317 317 317 317 316 315 315 316 315 314 318 320 318 317 319 320 322 322 321 322 320 317 313 311 313 314 314 314 314 315 316 316 316 316 317 319 320 320 319 320 320 320 320 319 320 320 320 320 320 320 319 318 317 317 317 318 318 319 320 320 320 321 321 323 323 323 323 323 323 323 324
333 332 330 330 329 328 326 325 323 323 322 322 321 320 319 318 317 318 317 317 316 315 314 314 319 323 322 320 321 323 324 323 323 323 322 321 316 312 313 314 313 313 313 314 315 316 316 316 316 317 318 318 318 319 319 318 318 318 317 317 317 317 317 318 318 317 317 316 316 316 316 318 319 319 320 320 320 322 323 323 323 324 324 324 325
333 333 332 332 332 331 330 328 327 325 324 323 323 322 322 321 320 319 319 318 318 317 316 315 316 322 325 324 324 325 325 325 325 324 324 323 320 317 318 318 317 314 315 316 316 317 317 318 318 319 320 320 320 320 319 318 318 317 317 317 317 317 317 317 317 317 317 317 316 316 316 316 316 317 317 318 319 319 320 321 322 323 324 325 325
334 333 334 334 333 333 332 331 330 328 327 326 326 324 323 323 323 322 321 321 320 320 319 317 315 318 324 325 326 326 326 326 326 326 325 324 323 322 322 323 322 320 320 320 320 320 320 321 321 321 321 320 320 320 320 320 320 320 320 320 321 321 320 319 319 318 318 318 317 317 317 316 316 316 315 316 317 317 317 318 319 321 323 324 324
334 333 333 334 334 334 333 332 331 331 329 329 329 328 327 326 326 325 324 324 324 323 322 320 317 317 321 324 326 326 326 326 326 326 326 324 323 324 324 324 324 324 323 323 323 323 323 323 323 322 322 321 322 322 322 322 323 324 323 323 323 324 324 323 322 322 322 321 320 320 320 319 319 318 317 317 316 316 317 317 317 318 320 321 322
333 333 332 334 335 334 334 333 333 332 331 331 331 331 330 329 330 329 329 328 327 327 325 323 321 319 320 323 325 325 326 326 326 327 326 325 324 324 325 326 326 325 325 324 324 324 324 324 324 324 324 323 323 323 324 324 324 324 324 323 322 323 325 324 324 324 324 323 323 323 322 322 322 321 320 319 318 317 317 317 317 318 318 319 320
333 332 333 333 335 335 335 334 334 334 333 333 333 332 332 332 332 332 332 331 330 329 328 326 324 322 321 322 324 325 326 327 328 328 327 326 325 325 326 326 326 326 325 325 324 324 325 325 325 325 325 324 324 324 324 324 323 322 322 322 323 324 324 324 324 324 324 323 323 323 323 322 322 322 322 321 320 319 319 318 318 318 319 319 319
332 332 334 334 334 335 334 335 334 335 334 334 334 334 334 333 333 333 333 333 332 331 329 328 327 326 325 324 325 326 327 328 328 328 328 327 327 326 326 326 326 326 326 326 325 325 325 325 325 325 325 324 324 324 324 323 322 322 322 322 324 325 324 323 323 323 322 322 322 322 321 322 322 323 322 321 321 320 320 319 319 319 318 319 318
333 333 334 334 335 334 334 335 335 336 335 335 335 335 335 334 334 334 334 334 333 332 331 330 329 329 328 327 328 328 328 329 329 329 328 328 328 327 326 326 326 326 326 326 326 325 325 325 324 324 324 324 323 323 323 323 323 324 323 323 325 325 324 323 323 322 321 321 321 321 322 322 322 322 321 321 321 320 320 319 319 319 319 318 318
333 334 334 334 335 335 335 335 335 336 336 336 336 336 336 335 335 335 334 334 334 333 332 331 331 331 330 329 329 329 329 329 329 329 328 328 328 327 326 326 326 326 326 326 326 325 325 324 324 325 323 323 323 323 323 324 324 325 325 325 325 325 325 324 323 321 320 320 320 321 321 322 321 321 320 320 320 320 320 319 319 319 319 318 318
332 333 334 334 334 334 335 335 335 336 336 337 337 337 337 336 336 336 335 334 334 334 333 332 332 332 331 330 330 329 329 329 329 329 329 328 328 327 327 326 326 326 326 326 326 326 325 325 326 324 323 323 323 324 325 325 325 325 324 325 325 325 325 324 322 320 320 320 320 321 321 321 320 319 319 319 320 319 319 319 319 319 319 318 317
332 332 333 333 334 334 334 334 335 335 336 336 336 336 337 336 337 336 336 335 335 335 334 334 333 332 332 331 331 330 330 329 329 329 328 328 327 326 326 325 325 325 324 324 324 324 325 325 324 323 323 323 323 324 325 324 324 324 324 325 325 324 324 322 320 319 320 320 320 321 321 320 319 318 318 319 318 318 317 317 318 318 318 318 317
331 331 332 332 332 333 333 333 333 334 335 336 336 336 336 337 337 337 336 336 336 335 335 334 334 333 333 332 332 331 330 330 329 329 329 328 326 325 325 325 325 325 324 325 324 323 323 323 322 322 322 322 323 324 324 324 323 324 324 324 324 324 323 320 320 320 320 319 319 319 319 319 318 318 318 317 317 316 316 316 317 317 317 317 316
331 331 331 331 332 332 332 332 332 333 334 335 336 336 336 336 336 336 336 336 336 336 335 335 334 334 333 333 332 331 331 330 330 330 329 328 327 326 326 326 325 325 326 326 324 322 322 323 322 322 322 323 323 324 324 324 324 324 324 323 324 323 322 320 320 320 319 319 319 318 318 318 318 317 316 315 315 315 315 316 316 316 315 315 315
330 330 330 330 331 331 332 332 332 332 333 334 335 335 335 335 335 335 335 335 336 336 335 335 334 334 334 333 332 332 331 330 330 330 330 329 328 328 327 327 327 327 327 326 325 323 323 324 323 322 323 324 324 324 325 325 323 323 323 323 323 322 320 320 321 320 320 320 319 318 318 318 317 316 315 314 315 315 315 315 314 313 313 313 312
329 330 330 330 330 331 331 331 332 332 332 333 333 334 335 334 334 334 334 334 334 335 335 334 334 334 334 333 333 332 332 332 331 331 330 330 329 329 329 328 328 328 327 327 327 326 325 326 324 323 323 325 325 325 325 324 323 323 321 321 321 320 319 319 320 319 319 319 318 317 317 316 315 314 314 314 314 313 311 311 310 309 310 310 309
328 329 329 330 330 330 330 331 331 331 331 331 332 333 334 334 334 334 333 333 333 334 334 334 334 334 334 333 332 332 332 331 331 331 331 331 330 330 329 329 329 328 327 326 327 327 327 327 326 325 325 325 325 324 324 324 323 322 321 321 320 319 319 319 318 318 318 318 317 316 315 314 313 313 313 312 310 307 305 305 305 305 305 305 305
327 328 329 329 330 329 330 330 330 330 330 331 331 332 333 333 333 333 333 333 333 333 334 334 334 334 334 333 333 332 330 329 329 329 330 331 330 330 329 328 327 326 324 324 325 326 327 327 326 326 326 326 326 324 324 324 323 322 322 321 319 319 320 319 316 317 317 317 316 314 314 313 312 313 310 306 303 301 300 299 299 300 300 300 301
326 327 328 328 329 329 329 330 330 330 330 331 331 331 332 332 333 333 333 333 333 333 333 333 333 333 334 334 333 332 330 329 328 327 328 328 328 329 330 328 325 325 324 325 327 327 328 328 327 327 327 326 325 324 323 323 323 322 321 320 319 319 320 317 315 316 316 315 314 313 311 310 310 309 304 299 298 298 297 296 296 297 297 298 299
324 325 326 327 328 328 329 329 330 330 330 331 331 331 331 332 332 332 332 332 332 332 332 332 333 333 333 333 333 331 330 328 327 329 330 327 327 328 328 326 325 325 327 328 328 328 328 328 325 325 326 325 324 323 323 321 321 321 320 319 319 319 318 315 315 316 315 313 313 311 307 304 302 300 297 296 296 296 296 296 295 296 297 297 296
321 322 325 326 327 327 327 328 329 330 330 331 331 331 331 332 332 332 332 332 332 332 332 332 332 332 332 332 331 330 329 327 327 330 331 328 328 329 329 328 328 328 329 329 328 327 326 325 323 324 325 324 323 322 321 320 320 320 319 318 317 317 316 314 314 315 314 313 311 309 306 303 298 295 295 296 296 295 295 295 295 296 296 295 295
317 321 324 325 327 326 327 328 329 329 330 331 331 331 331 331 332 332 332 332 332 332 332 331 331 331 331 330 330 329 327 326 326 329 331 330 329 329 329 330 329 328 328 327 326 325 324 323 323 324 324 323 322 321 320 319 319 318 317 316 316 315 314 314 313 312 312 311 309 308 307 303 298 295 296 296 295 294 294 295 295 295 295 295 295
317 320 323 325 326 326 327 328 328 329 330 331 331 331 332 332 331 332 332 332 332 332 332 331 330 330 330 330 330 329 327 326 327 330 330 329 329 329 329 329 328 328 326 324 323 323 323 323 323 323 322 322 320 320 319 319 318 317 316 316 315 315 313 313 312 311 309 309 308 307 306 302 299 295 295 296 295 294 294 295 295 295 295 295 295
314 318 321 324 325 326 327 328 328 329 329 331 331 331 332 332 331 331 332 332 332 332 331 331 330 330 330 330 329 328 327 327 328 329 329 328 328 328 327 327 327 326 325 323 323 323 323 322 322 321 321 320 319 319 318 317 316 316 315 315 314 313 312 311 310 309 307 307 307 305 303 301 299 297 295 295 294 294 294 294 295 295 294 294 294
311 315 319 322 324 326 327 328 328 329 329 330 331 331 331 331 331 331 331 332 332 331 330 330 330 330 330 330 329 329 328 326 327 328 328 328 328 326 326 325 325 325 324 323 322 322 322 321 320 320 319 318 318 317 316 315 314 314 313 311 311 309 308 309 308 306 305 305 303 302 300 298 298 297 295 294 293 293 294 295 295 294 294 294 294
Wind_Speed
10 8 7 8 8 8 7 8 8 6 9 8 7 8 9 10 12 13 13 12 12 11 12 12 13 15 16 17 18 18 18 17 17 17 16 15 14 15 16 16 16 17 18 17 17 19 20 19 18 17 18 18 18 18 18 18 18 18 18 18 17 17 17 18 19 19 20 21 20 20 20 19 19 18 18 17 17 16 16 15 15 15 15 15 14
13 10 9 10 9 8 8 8 7 6 9 9 8 8 9 11 12 13 12 11 10 10 12 14 15 15 16 17 18 18 18 18 17 16 16 14 13 13 14 15 15 15 17 17 18 20 20 19 18 18 18 18 19 19 19 19 19 19 18 18 18 17 17 18 18 18 19 19 19 20 20 20 19 19 18 17 17 17 17 17 16 16 16 14 14
13 12 10 11 10 9 9 7 7 7 10 9 9 9 9 12 13 13 11 11 11 12 13 15 15 15 16 17 17 18 18 18 17 17 16 15 14 13 13 13 14 14 15 17 19 20 20 19 18 18 18 18 19 18 19 19 19 19 18 18 18 17 17 17 17 17 17 18 19 20 21 20 19 18 18 17 17 17 17 18 18 18 17 15 15
14 13 11 12 12 10 9 7 7 9 11 10 9 9 10 13 13 13 12 11 11 11 12 14 15 15 15 16 17 17 17 17 17 17 16 16 16 15 13 13 13 14 15 17 18 18 18 18 18 18 18 18 18 17 18 19 19 18 18 17 17 17 17 16 17 17 17 18 18 19 20 19 18 17 17 17 17 18 17 18 18 18 17 16 16
14 13 12 13 14 11 8 8 8 9 10 10 10 10 12 13 13 13 13 12 10 10 12 15 15 14 14 15 16 16 16 16 16 16 16 16 16 16 15 15 15 15 15 17 18 17 18 18 17 17 17 16 17 17 17 17 17 17 17 17 17 17 17 17 17 16 16 17 17 17 17 16 17 17 16 17 17 16 16 17 17 16 16 15 15
14 13 13 14 15 11 8 7 7 9 10 11 11 12 13 13 13 13 13 12 10 11 13 14 13 13 14 15 15 15 15 15 16 15 16 16 16 16 16 16 16 16 17 17 17 17 17 17 17 16 16 16 16 16 16 16 16 16 16 16 16 16 16 16 15 15 15 15 16 15 15 14 15 15 15 15 15 14 14 15 15 14 15 14 14
13 13 12 14 14 11 8 7 8 10 11 11 12 12 13 13 13 12 12 11 11 13 13 12 12 13 14 15 14 15 15 15 15 16 16 16 16 16 16 16 16 17 17 17 17 17 17 16 16 15 15 15 15 15 16 16 15 15 15 14 14 15 15 15 14 14 14 15 15 15 16 15 15 15 14 14 14 14 15 14 14 14 15 15 14
13 13 13 15 14 12 9 8 10 11 12 12 12 13 13 13 12 11 11 11 11 13 12 13 13 13 14 14 14 14 14 15 15 15 16 15 16 16 16 16 16 17 17 17 16 16 16 16 15 15 14 14 14 15 15 16 16 15 14 14 14 14 14 14 14 14 14 15 15 16 16 16 16 16 14 14 14 14 15 15 15 14 14 15 14
13 13 15 16 14 12 9 8 10 11 12 13 13 13 13 11 10 10 10 11 12 13 12 13 13 12 13 13 13 13 14 14 14 15 15 15 15 15 15 16 16 16 16 16 15 15 15 15 15 14 14 14 14 14 14 15 15 14 14 13 13 13 14 14 14 14 15 15 15 16 16 15 14 14 13 13 13 14 16 16 15 13 13 13 12
14 14 17 17 13 12 10 8 10 11 12 13 13 13 12 10 9 8 10 13 13 11 10 11 11 11 11 12 12 12 13 13 14 14 14 15 14 14 15 15 15 15 15 15 15 15 14 14 14 14 13 13 13 13 13 13 14 14 13 13 13 13 13 13 14 15 15 15 14 14 14 13 13 13 13 13 13 13 15 14 13 13 13 13 13
14 16 19 17 14 13 11 9 9 10 11 12 13 12 10 10 9 8 10 13 12 9 9 10 10 10 10 11 11 12 13 13 13 13 13 14 13 14 14 14 14 14 14 14 15 14 14 13 13 12 12 12 12 12 12 13 13 13 13 13 13 13 13 13 14 14 14 14 13 12 12 13 13 13 12 12 12 12 13 12 11 12 13 13 12
14 17 20 19 15 14 13 12 10 9 10 11 12 11 10 9 8 8 9 12 12 9 10 10 10 9 9 9 10 11 12 12 12 12 13 13 13 13 13 13 13 13 14 14 13 13 13 12 11 11 11 11 11 11 11 12 13 13 13 13 13 13 13 13 13 14 14 13 13 13 13 13 13 12 11 11 11 11 12 12 11 11 11 12 12
15 17 20 20 17 15 13 13 12 10 9 9 10 10 9 9 8 8 9 11 11 10 10 10 9 9 8 9 9 10 11 12 11 12 12 12 12 12 12 12 12 13 13 13 12 12 11 11 10 11 11 11 10 11 11 11 12 12 13 13 12 12 12 13 13 13 13 13 13 13 12 12 11 11 11 11 11 10 11 10 9 10 10 10 10
16 17 19 20 18 16 14 14 14 13 11 9 10 9 9 9 8 7 7 9 11 11 11 9 8 7 7 8 8 10 11 12 11 11 11 11 11 11 11 10 11 12 12 12 11 10 10 10 10 11 10 10 10 10 10 10 11 11 12 12 12 12 12 12 12 12 12 12 12 11 12 12 11 11 11 10 10 9 10 10 9 10 10 9 9
15 17 18 19 18 17 15 15 14 14 13 10 10 10 10 9 7 5 5 9 11 11 10 9 8 7 7 8 8 10 11 11 11 10 10 11 11 10 10 9 10 11 11 11 10 10 9 9 10 10 9 9 9 9 9 10 10 10 10 11 11 11 12 12 12 12 12 11 10 11 12 12 11 10 10 11 10 9 10 10 10 10 10 9 8
14 15 17 18 17 16 15 15 14 14 13 11 10 10 10 9 7 5 5 10 11 10 10 10 8 8 9 8 9 10 10 12 11 10 10 10 10 10 9 9 9 10 10 10 9 9 8 8 9 9 8 8 8 8 8 9 9 9 9 9 10 11 11 12 12 12 12 11 9 10 11 10 10 9 9 10 10 10 10 9 9 9 9 8 6
14 14 16 16 16 15 15 15 14 14 14 12 11 10 10 8 6 5 6 11 11 10 11 11 9 8 9 8 9 9 8 10 10 10 10 9 10 9 8 8 8 9 9 9 8 7 7 8 8 7 7 7 6 7 7 7 8 8 8 9 9 10 10 11 12 12 12 11 9 8 8 8 9 8 8 10 9 10 10 9 9 8 8 7 7
13 14 15 15 16 16 16 15 13 14 14 13 12 10 9 8 6 4 7 12 11 10 11 11 10 9 8 7 7 6 5 7 8 8 8 8 10 10 9 8 7 8 8 8 7 7 8 8 7 6 6 5 5 4 5 6 6 7 7 8 8 9 9 10 11 12 11 11 9 8 7 7 9 8 8 9 9 9 10 9 8 8 8 8 7
14 14 15 16 16 17 17 15 13 13 13 13 12 11 9 8 6 5 7 12 12 9 10 10 9 8 8 7 6 5 4 5 5 6 8 8 8 8 8 8 7 7 7 7 7 8 9 9 7 6 5 4 3 2 3 4 4 5 6 7 7 8 8 9 10 11 11 10 9 7 6 7 7 7 7 9 10 10 10 8 9 9 9 8 8
15 15 15 16 17 18 18 15 14 13 12 12 12 11 11 9 7 6 6 10 11 8 8 9 8 8 7 7 6 5 4 4 4 6 7 6 5 5 5 6 6 6 6 7 9 9 9 8 7 6 4 3 2 1 1 2 3 4 5 6 7 7 8 9 9 10 10 10 9 7 5 6 6 5 6 9 10 9 8 7 8 9 9 9 9
16 17 16 16 17 18 18 16 15 14 12 11 12 12 12 11 9 7 6 9 10 8 8 8 8 9 8 8 7 5 4 4 4 6 5 4 4 4 4 5 5 5 7 8 9 8 7 6 6 5 4 3 3 2 1 1 3 3 4 6 6 7 8 8 9 9 9 9 9 7 5 5 6 5 7 9 9 9 8 7 8 10 10 10 9
17 19 18 17 18 18 19 17 15 15 13 10 11 13 13 12 11 8 7 8 10 9 8 8 8 9 9 8 7 6 4 3 3 4 3 2 2 3 4 4 4 5 6 7 7 7 6 6 5 4 4 4 3 3 2 1 1 3 4 6 7 7 8 8 9 9 9 9 9 8 6 6 5 5 7 8 9 10 9 9 10 10 10 10 9
20 21 21 19 18 18 19 18 17 15 14 11 11 12 13 13 11 10 9 9 9 9 9 9 9 9 9 8 7 5 4 3 2 2 2 1 1 2 3 3 4 4 5 5 6 6 6 5 4 4 3 3 2 2 1 0 1 2 4 6 6 7 8 9 9 9 10 9 9 9 7 7 6 6 8 10 11 10 10 12 12 9 9 10 9
25 25 23 21 20 19 18 18 17 16 15 14 12 12 12 12 11 10 10 10 9 9 9 9 9 10 9 9 7 6 4 3 3 3 2 1 1 2 2 3 3 3 4 4 5 5 5 4 4 3 3 2 1 1 1 2 2 3 4 5 6 7 9 9 10 10 11 11 11 10 9 9 8 8 9 11 11 11 12 13 12 11 8 9 9
26 25 24 23 22 20 19 18 18 17 16 15 14 13 12 12 11 9 10 11 10 9 9 9 9 10 10 9 8 7 6 4 4 3 3 2 2 2 2 2 2 2 3 3 4 4 4 4 4 3 3 2 2 3 3 4 4 5 5 6 7 8 9 10 11 12 13 13 13 12 11 11 10 10 10 11 12 12 13 13 15 14 9 9 11
23 26 26 25 23 22 20 19 18 18 17 16 15 14 14 13 12 11 10 10 11 10 10 10 10 10 10 10 9 8 7 6 4 3 2 2 2 3 3 2 2 2 3 3 4 4 4 4 4 4 4 3 4 4 6 6 7 7 8 8 8 9 10 11 13 14 14 15 15 15 14 13 13 12 12 12 12 13 14 14 16 14 11 13 14
24 27 27 26 24 23 22 20 20 18 17 16 15 15 15 15 13 12 12 11 11 11 11 11 10 10 10 11 10 9 7 6 4 3 1 1 1 3 3 3 3 3 3 4 5 6 5 5 5 5 5 5 6 7 9 10 11 11 11 11 12 12 13 14 15 15 15 16 17 17 17 16 16 15 15 14 14 14 15 15 16 15 15 17 16
24 27 28 27 26 25 23 22 21 20 19 18 17 17 17 16 15 15 14 13 12 11 11 11 11 11 11 11 10 9 7 6 5 3 1 1 1 2 3 3 4 4 4 4 5 6 6 6 6 6 7 8 8 9 10 11 12 13 13 14 14 14 14 15 16 16 15 15 16 16 17 18 18 18 18 18 17 17 17 17 18 18 18 18 18
24 27 28 29 28 26 25 24 23 22 21 19 19 18 18 17 17 16 15 14 14 12 11 12 13 12 12 12 11 9 8 7 5 4 3 2 2 2 3 3 3 4 4 3 4 4 5 5 6 6 7 8 9 10 11 12 12 13 13 14 15 15 15 16 16 16 16 16 15 16 16 17 18 19 19 20 20 20 19 19 20 20 20 20 20
26 26 27 29 30 28 27 26 25 24 22 21 21 20 19 19 18 17 16 16 15 13 13 13 13 14 14 13 11 10 8 7 6 5 5 3 3 4 4 4 4 4 4 4 3 4 5 6 7 7 8 9 10 11 12 13 13 14 15 16 17 17 17 18 18 18 18 18 18 18 17 18 19 19 20 20 21 21 21 21 21 21 22 22 23
27 26 27 28 29 30 29 28 26 25 24 23 22 21 20 20 19 18 17 16 15 14 15 14 15 15 15 14 12 10 8 7 6 6 6 5 4 5 5 5 5 5 6 6 5 6 7 7 9 9 10 11 11 12 14 15 15 14 16 18 19 20 20 19 19 19 19 19 19 20 20 20 20 20 20 21 21 22 22 23 22 23 24 24 25
28 28 28 28 28 29 30 29 28 27 26 25 24 22 21 20 19 18 17 16 15 15 16 16 16 16 16 15 14 12 9 8 7 6 6 6 6 6 6 6 6 6 7 7 7 7 8 9 10 11 12 12 12 12 13 15 17 17 18 20 20 20 20 19 18 18 19 19 19 20 21 21 21 21 21 21 22 22 22 23 23 24 25 25 26
30 30 30 30 30 30 31 30 29 29 28 27 25 24 23 22 20 19 18 17 16 16 16 17 17 17 16 16 15 13 11 9 8 7 7 6 6 7 7 8 7 7 7 8 8 8 9 9 11 12 13 14 14 13 13 16 18 20 20 20 20 20 20 19 17 18 19 20 20 21 23 24 23 22 22 23 22 23 23 23 24 24 25 26 27
31 31 32 31 31 31 31 30 30 30 29 28 27 26 24 23 22 21 19 18 17 18 17 17 16 16 17 16 15 14 12 11 10 9 8 8 8 8 8 8 8 9 9 8 8 9 9 10 12 14 15 16 17 16 17 18 18 19 19 19 20 20 20 19 18 20 21 22 22 23 23 24 23 23 23 24 24 24 24 24 24 25 26 27 28
30 31 32 32 31 31 31 31 30 30 30 29 28 27 25 24 23 22 21 19 19 19 19 18 16 15 16 16 15 14 13 12 11 10 10 9 9 9 9 9 9 10 10 10 10 11 11 12 14 14 14 16 18 19 19 20 19 19 20 20 21 21 21 20 21 22 22 22 21 21 21 21 21 22 22 23 23 23 23 24 24 24 26 27 27
31 32 32 31 31 31 31 31 31 31 30 30 29 28 26 25 24 23 22 21 20 21 20 20 18 17 16 16 16 15 14 13 12 11 11 11 11 11 11 10 10 10 10 11 11 12 13 14 14 14 15 16 18 20 21 22 22 21 22 22 22 23 23 22 23 24 23 22 20 19 18 18 19 21 22 22 23 23 22 22 23 23 24 24 24
31 32 31 31 32 32 31 31 32 32 31 31 30 29 28 26 25 24 23 23 22 22 22 21 20 19 18 18 17 16 15 14 13 12 11 10 11 11 11 10 11 12 12 12 13 14 13 12 13 15 17 17 18 21 22 21 20 21 22 23 23 23 22 22 24 24 22 19 18 17 16 17 19 21 22 21 21 22 22 22 22 22 20 21 23
31 32 32 32 33 33 33 32 32 32 32 32 31 30 29 28 27 26 26 25 25 24 23 23 22 21 20 19 19 18 17 15 14 13 12 12 12 12 13 13 13 13 13 13 14 16 15 14 15 15 16 16 18 20 20 19 20 21 21 23 22 19 19 21 22 20 17 17 16 15 16 17 18 20 20 19 20 22 23 23 23 22 21 22 25
31 32 32 32 32 32 33 33 33 33 33 32 31 30 30 30 29 28 28 28 28 26 25 25 23 22 22 21 20 19 19 17 16 15 15 14 13 13 14 13 13 12 12 12 13 14 14 13 15 15 14 15 17 19 19 18 19 20 21 21 17 16 19 19 18 15 13 16 16 15 16 17 17 18 19 19 22 24 23 22 22 23 23 24 27
32 32 32 33 33 33 32 33 34 33 33 32 31 31 31 31 31 30 30 30 30 28 27 26 25 24 24 22 21 21 20 19 18 16 17 16 15 15 14 11 11 13 14 14 13 12 10 11 13 14 14 15 17 18 18 17 19 21 21 19 15 17 19 17 15 9 11 17 17 15 16 16 17 18 19 21 23 23 22 22 22 23 25 26 27
31 31 32 34 35 34 34 35 35 33 33 33 33 33 32 31 30 30 30 30 29 29 28 28 27 26 24 23 23 22 21 20 19 18 18 19 18 18 16 15 15 15 15 16 16 12 9 10 12 13 16 16 17 18 18 18 16 17 18 17 17 17 15 16 11 6 13 20 16 14 16 16 17 18 21 23 21 20 21 22 23 24 25 26 26
32 33 34 35 36 36 36 36 35 34 35 35 34 34 34 33 31 30 30 29 29 30 30 29 28 27 25 25 24 22 22 21 19 19 20 21 21 20 20 20 19 19 18 18 19 16 14 13 13 14 16 16 17 15 16 15 11 11 12 13 15 14 13 9 4 9 18 16 12 15 17 16 18 20 22 22 20 21 22 22 23 24 24 25 26
34 34 35 35 35 36 37 37 36 36 36 36 36 36 35 34 33 31 30 29 30 30 30 30 28 27 27 25 25 24 23 22 21 20 21 21 20 20 19 18 17 17 17 17 18 18 17 16 15 16 17 17 16 14 14 12 8 9 9 6 6 8 9 3 5 19 17 9 14 18 16 18 20 21 22 22 22 23 23 23 23 24 24 25 25
32 32 34 35 36 36 37 37 37 37 37 36 37 36 35 33 32 31 30 28 28 28 28 28 28 27 26 25 25 24 23 23 22 21 21 21 19 18 17 15 15 15 14 14 15 15 14 14 15 16 16 17 16 12 11 8 6 6 4 2 2 3 4 3 15 23 11 9 21 20 19 23 22 20 22 24 25 24 24 25 25 25 25 25 24
31 33 35 36 36 37 37 37 38 38 38 37 37 36 34 32 30 28 26 25 25 25 24 25 25 25 25 25 24 23 23 22 19 18 18 17 18 19 18 14 12 12 14 16 17 16 15 14 14 14 15 15 13 10 8 6 5 4 2 2 2 2 1 5 14 12 10 19 25 22 24 24 21 22 24 26 25 24 26 26 25 25 25 24 23
33 35 36 37 37 37 37 38 38 38 38 38 37 36 35 33 31 28 26 24 24 25 25 24 24 24 23 23 23 23 23 22 20 20 16 13 16 17 15 16 15 14 15 19 19 17 14 13 12 12 11 9 7 6 5 5 3 1 2 1 2 4 4 6 5 4 12 18 17 22 23 20 22 24 25 25 25 26 26 26 26 25 23 23 23
34 36 36 36 36 37 37 37 38 38 38 38 37 36 35 34 33 32 31 29 28 28 27 25 24 23 23 22 23 23 23 21 20 22 19 15 18 17 15 19 19 17 17 18 16 12 10 10 9 9 7 5 4 3 2 1 1 1 2 2 3 4 4 5 2 3 7 6 12 21 17 15 22 24 23 24 24 26 26 25 25 23 22 23 24
34 34 34 35 36 37 37 37 37 38 38 37 36 36 36 36 35 35 33 32 32 30 28 26 24 24 24 24 24 21 19 17 16 18 19 17 18 17 16 17 17 15 13 11 9 8 7 7 7 5 4 4 3 2 2 1 2 2 3 4 3 3 5 7 4 4 3 3 10 14 12 17 22 23 22 21 22 25 25 24 23 23 24 25 26
32 31 32 34 35 35 35 35 36 37 37 37 37 37 37 37 36 35 34 34 33 31 27 25 24 23 23 22 21 18 14 13 14 16 17 16 17 16 14 13 13 11 8 7 8 9 7 5 4 4 4 3 2 1 2 4 4 4 4 5 5 6 9 8 6 7 6 6 6 6 13 18 20 25 23 18 22 23 21 20 21 23 25 25 27
28 30 30 31 32 33 33 34 35 35 36 37 37 37 37 37 36 35 34 34 33 30 27 24 23 22 21 19 18 16 14 13 15 16 15 16 16 15 13 10 10 9 9 10 9 9 8 6 5 4 4 3 3 4 6 5 4 4 5 6 6 8 8 5 6 9 8 6 5 8 14 14 16 24 22 19 24 22 18 17 19 24 25 25 26
24 26 28 29 30 32 33 34 35 35 35 36 36 37 37 37 38 37 36 35 33 31 28 25 24 22 21 20 18 16 14 14 14 15 15 16 17 17 16 14 13 13 12 11 10 9 9 8 8 7 6 7 7 8 8 6 6 6 5 5 4 4 3 3 6 9 7 5 6 9 15 17 17 19 21 24 24 21 19 15 17 23 24 24 24
Wind_Direction
170 154 142 132 126 129 124 127 127 136 132 128 124 118 116 113 110 104 97 93 92 82 75 83 86 84 85 85 84 84 84 85 89 90 91 89 84 81 81 83 82 82 81 80 78 76 73 72 73 76 78 78 77 76 76 75 74 75 75 78 79 79 81 81 80 80 79 76 72 70 66 61 59 57 56 55 56 57 59 58 57 56 54 53 51
163 150 142 134 129 129 122 126 131 135 134 134 128 121 118 115 110 101 97 95 89 76 76 85 86 86 86 84 84 84 84 85 85 84 86 91 91 82 77 80 81 80 80 79 77 76 75 74 74 77 80 80 78 76 75 76 75 75 74 76 77 77 81 82 81 79 77 76 72 69 64 60 58 57 55 53 53 53 56 55 56 56 52 51 49
152 146 145 139 137 133 126 133 137 133 135 134 128 124 120 117 110 101 97 92 84 79 84 87 85 86 85 84 84 83 84 85 85 85 84 86 89 87 83 79 77 75 76 77 75 74 74 75 76 78 80 80 79 76 73 74 73 72 72 73 75 77 79 79 78 77 74 71 68 65 62 59 55 53 54 53 52 52 55 56 55 57 54 51 47
149 147 148 146 142 134 135 149 140 133 135 132 129 125 123 120 111 103 98 89 83 82 86 88 89 89 87 84 85 87 87 85 84 85 85 86 86 86 86 84 81 77 75 76 75 74 73 75 78 78 79 79 77 75 72 71 71 71 71 72 74 76 76 75 73 71 69 67 67 67 66 64 56 51 53 55 54 52 53 55 54 54 53 51 50
147 145 149 148 141 136 148 156 141 138 134 131 131 126 125 120 110 105 100 93 84 79 83 90 90 87 86 84 86 89 86 85 85 85 85 86 85 84 84 86 86 84 81 81 79 76 75 77 79 81 81 80 78 75 71 69 69 71 74 76 77 76 74 70 67 64 63 64 65 66 67 66 62 54 52 53 52 52 51 50 49 49 48 49 51
146 145 147 146 142 143 155 154 145 142 134 132 130 126 124 116 109 106 100 93 88 83 86 89 85 84 89 89 88 86 84 87 87 87 85 85 87 85 85 86 88 89 88 86 83 79 78 79 80 82 83 81 79 76 72 69 69 72 77 80 79 75 70 66 62 61 59 59 59 59 58 56 59 55 51 51 50 52 49 43 43 47 48 50 48
144 145 145 143 143 146 149 149 148 140 133 133 130 126 120 112 108 105 101 97 94 91 89 88 83 82 90 92 89 85 86 89 87 87 86 86 87 87 87 88 90 92 91 88 84 81 80 81 82 83 83 82 79 75 73 72 72 73 77 78 76 70 65 61 58 58 56 56 55 53 51 49 51 52 50 51 52 52 49 45 48 52 51 48 48
143 145 142 141 144 143 140 142 143 136 133 133 129 122 115 112 109 106 104 101 98 95 92 91 87 87 90 90 88 87 88 88 88 88 88 88 87 86 87 88 90 93 92 88 85 83 81 82 84 86 85 82 78 76 75 75 74 73 75 73 69 65 61 58 57 56 54 52 51 49 50 50 51 53 54 51 51 51 52 54 55 55 50 47 49
143 144 141 143 145 141 134 137 137 135 135 133 127 118 114 113 110 106 101 99 97 99 100 93 92 93 90 88 89 90 89 89 89 88 88 88 87 87 87 88 89 92 94 90 86 85 82 81 83 85 85 82 79 78 77 74 73 72 71 69 66 63 60 57 55 52 50 48 48 49 51 55 58 60 56 52 53 53 56 58 56 53 48 46 49
144 143 144 145 143 140 136 133 130 134 137 132 124 118 121 117 110 100 96 101 100 105 107 96 96 96 91 91 94 92 88 88 89 89 90 91 91 90 90 90 90 93 96 93 89 87 84 83 84 87 88 85 82 79 76 73 72 72 69 67 65 62 59 56 53 50 49 49 49 51 53 56 59 61 55 53 57 55 54 51 48 47 45 49 50
144 144 147 145 143 143 139 138 132 134 138 136 128 127 131 119 111 98 95 108 105 106 103 99 104 101 96 95 98 97 90 88 88 90 91 91 91 89 89 88 88 93 98 98 92 89 87 84 86 91 91 88 85 81 77 75 74 73 71 69 65 62 59 53 51 51 51 49 50 52 55 56 54 54 52 53 55 50 46 41 46 47 44 47 43
146 148 151 150 150 149 148 154 148 136 137 141 135 133 134 119 114 102 99 112 110 108 104 104 109 104 100 97 103 104 96 93 92 92 92 90 90 88 88 88 87 92 99 101 94 90 89 84 88 95 91 87 85 82 78 77 77 75 73 68 63 59 55 51 49 52 50 49 55 58 60 59 55 52 51 52 48 46 44 44 51 44 34 36 33
149 153 157 158 158 157 158 164 159 149 143 144 139 134 133 122 117 109 104 114 115 114 112 114 114 108 106 106 105 100 98 99 96 96 96 93 92 91 91 90 91 97 102 104 98 93 92 88 93 95 90 87 85 82 79 75 76 74 70 65 60 55 51 50 50 50 48 50 58 60 58 55 57 56 52 51 47 49 46 44 43 29 27 34 33
153 158 163 165 165 164 164 166 164 159 155 153 148 142 135 126 125 120 109 122 126 122 120 118 115 113 106 104 101 98 102 103 100 100 99 97 96 96 95 93 97 102 104 107 104 97 95 95 96 94 88 86 83 78 75 71 71 69 65 61 56 53 49 49 51 47 46 53 56 53 57 55 56 56 51 47 44 47 42 37 36 28 29 33 32
156 160 166 171 172 171 169 169 168 164 164 163 156 152 145 139 144 137 117 130 131 128 130 123 118 127 120 115 113 111 114 111 107 104 102 101 99 97 96 95 100 102 104 111 108 102 102 104 104 96 88 83 77 73 70 66 65 63 60 55 52 50 46 47 47 45 45 49 49 54 64 60 54 53 48 43 39 41 35 31 32 28 28 31 38
160 162 168 174 177 176 174 174 175 169 168 168 160 159 158 154 155 146 132 133 132 136 139 131 133 140 135 135 129 121 121 119 111 108 108 106 106 103 101 100 102 104 109 112 110 108 109 114 114 102 91 81 72 68 66 62 58 55 54 48 46 45 43 43 41 41 42 41 45 55 64 61 55 49 41 39 37 35 29 26 25 25 28 31 34
163 165 169 173 176 176 176 176 178 172 169 172 167 163 166 164 162 159 147 140 143 154 149 144 155 157 148 145 140 130 124 126 122 122 123 119 120 112 103 101 102 109 110 109 115 121 122 127 126 113 101 87 73 65 61 59 53 50 47 42 40 40 39 38 37 37 36 37 37 42 55 57 46 37 36 36 36 31 24 21 17 17 21 18 8
165 169 170 172 173 172 173 174 177 171 169 176 177 174 173 173 174 173 157 155 158 165 166 165 168 167 161 158 156 147 129 128 127 128 130 125 121 114 109 104 104 113 115 117 126 130 134 141 140 134 125 106 86 66 54 51 46 43 38 34 35 34 35 33 33 32 31 32 30 36 53 53 34 28 39 30 21 21 14 15 16 12 10 7 358
169 172 172 172 173 172 173 174 176 170 171 179 183 184 184 188 187 178 165 168 169 166 176 181 176 168 163 166 170 163 139 127 118 119 125 121 112 111 120 117 112 122 125 122 122 126 137 145 148 148 143 131 115 77 44 39 32 30 27 25 27 27 30 29 29 28 27 28 28 40 55 49 31 24 36 16 3 10 8 12 13 5 2 355 350
173 177 176 174 174 175 177 177 179 175 177 180 183 189 194 201 196 180 168 174 176 170 176 182 183 180 172 171 176 171 154 135 115 121 126 117 94 91 117 122 121 128 125 118 119 127 136 143 147 149 150 149 144 121 39 28 21 21 21 19 21 23 24 23 23 24 24 26 25 34 35 29 31 20 13 1 358 2 2 10 3 355 351 340 338
178 181 180 178 178 179 181 182 183 182 183 183 186 191 195 200 195 185 169 172 180 179 178 178 181 184 182 179 182 182 169 150 129 133 134 118 88 79 95 110 115 121 121 122 126 130 135 139 141 142 143 139 135 131 110 44 20 18 19 17 18 17 16 12 12 15 18 21 20 25 18 6 27 18 352 351 350 340 338 345 343 343 341 335 332
182 184 185 183 181 183 184 187 188 187 188 187 188 190 194 197 197 194 177 171 178 183 184 180 183 183 185 185 184 185 174 163 143 142 146 130 101 88 88 99 105 113 121 128 131 134 137 141 140 133 130 125 124 125 120 87 19 4 7 10 10 7 5 0 359 3 4 9 9 12 9 354 4 357 338 340 339 329 323 321 326 338 342 337 331
186 187 188 186 185 185 185 189 191 191 194 192 188 188 192 198 201 199 184 177 176 183 188 185 188 186 187 189 187 188 184 182 168 162 164 151 135 119 107 106 114 121 131 141 142 144 146 147 143 134 130 128 128 127 127 24 341 341 350 354 359 357 353 350 347 350 350 352 353 353 353 345 342 333 325 329 333 327 318 314 317 334 343 335 326
190 190 189 189 189 189 189 190 191 193 195 195 193 188 188 192 195 195 190 185 180 183 190 191 191 190 192 194 194 196 194 195 193 196 196 197 202 175 148 125 128 138 147 160 161 158 158 161 162 157 156 159 180 240 295 309 312 319 332 336 342 342 339 338 336 336 336 336 337 337 335 333 331 324 318 321 326 323 320 314 308 319 327 321 317
192 192 192 192 193 193 193 192 192 194 195 197 196 193 191 190 189 190 192 192 190 188 190 193 193 193 195 195 195 191 185 183 180 185 193 204 214 209 197 160 149 161 168 182 190 187 183 188 192 191 193 206 238 267 288 298 304 309 316 319 321 325 326 326 325 324 324 323 323 324 323 322 321 318 312 311 315 317 318 310 303 311 310 302 308
194 195 195 196 196 196 197 195 196 196 195 197 197 198 198 197 195 192 193 195 197 196 193 193 193 194 193 192 189 184 181 176 170 171 179 200 216 222 223 215 214 206 211 220 217 218 221 222 222 224 235 253 269 288 305 310 312 311 311 312 312 314 316 315 314 314 314 314 313 314 313 313 313 312 309 305 305 307 310 307 304 306 297 291 297
198 200 199 198 199 199 200 200 200 200 198 198 199 202 203 204 203 201 201 198 198 200 199 196 194 195 194 192 189 189 190 187 186 180 182 246 247 237 232 238 246 240 247 243 233 236 240 243 249 254 266 285 299 311 321 323 320 318 316 314 312 312 314 313 311 310 309 309 307 307 307 307 308 307 306 304 300 299 302 305 302 297 294 292 293
202 203 202 201 202 201 202 202 204 205 203 201 202 205 206 207 206 208 209 204 205 205 205 204 203 203 202 201 201 205 208 209 211 206 230 300 308 261 250 259 265 261 265 258 248 247 251 259 266 273 285 298 311 321 325 325 321 318 316 316 316 317 317 316 313 312 311 309 307 306 305 304 305 304 304 303 300 297 296 297 297 296 299 298 296
206 205 204 205 205 204 205 205 206 207 208 208 207 208 209 209 209 211 212 210 212 211 211 213 213 215 214 213 214 217 222 226 231 237 253 292 319 294 288 302 303 284 280 281 270 266 273 280 286 293 301 307 314 322 327 331 330 326 322 323 325 326 325 321 318 317 315 313 311 308 307 305 304 304 302 301 300 298 297 296 296 298 300 300 299
209 209 206 207 207 207 207 207 208 208 210 212 212 213 213 213 212 214 214 215 217 216 216 217 220 222 224 225 225 225 229 235 245 257 265 282 300 298 301 309 319 312 310 318 310 307 309 308 310 311 314 316 319 324 330 334 335 333 332 332 332 330 326 324 322 320 318 317 316 314 312 310 308 306 304 301 299 298 298 298 298 299 299 299 300
212 212 210 210 209 209 209 209 210 210 212 214 216 216 216 217 217 217 218 221 222 222 222 222 223 225 229 232 234 235 235 240 249 260 270 275 282 291 298 302 312 318 318 321 319 319 321 321 323 324 322 322 325 328 330 332 335 333 331 330 328 326 324 321 319 318 317 317 317 316 314 313 311 310 308 305 302 300 298 299 299 300 300 300 301
215 214 214 212 212 212 212 211 211 212 214 216 219 219 219 220 220 221 223 225 228 228 228 226 226 227 230 233 237 241 241 244 249 258 271 274 276 280 284 290 301 311 311 311 311 312 318 324 326 326 323 321 322 324 325 325 326 325 321 316 314 317 320 319 317 317 317 316 317 317 315 313 310 308 308 307 306 304 301 299 300 301 303 303 303
216 217 219 217 215 215 214 214 213 213 215 217 221 222 222 223 223 225 226 228 229 231 231 229 227 228 229 232 237 240 241 244 248 258 266 269 274 277 282 288 292 294 297 301 304 306 311 319 325 324 321 319 317 317 319 316 311 312 312 310 311 315 318 316 315 316 316 315 315 315 317 316 313 311 310 310 309 307 305 303 302 303 304 304 304
218 218 221 222 220 219 218 218 216 215 217 219 222 224 224 225 227 228 229 230 230 232 233 231 228 227 228 231 234 238 241 244 249 255 259 265 271 275 283 292 294 291 291 295 298 303 306 312 318 316 316 318 315 313 313 309 306 311 313 311 312 315 316 314 315 318 317 314 312 312 315 316 315 316 316 315 313 311 309 308 307 306 306 306 306
219 219 221 224 224 223 222 221 220 219 219 220 223 226 227 228 229 231 231 232 233 234 236 234 232 229 228 229 232 237 241 246 250 252 257 266 271 277 285 292 294 293 293 293 295 298 298 303 304 302 307 308 303 304 305 304 304 308 312 312 313 315 314 314 318 321 320 317 314 313 316 317 320 322 323 322 319 318 316 316 315 313 312 311 311
220 221 222 223 224 225 225 225 224 224 224 224 225 228 231 232 233 235 236 236 237 238 238 239 239 236 234 234 236 239 241 247 250 249 255 262 270 278 282 283 286 291 294 291 290 290 288 288 288 291 299 299 296 299 302 303 301 299 306 312 313 312 312 312 316 319 320 320 320 322 325 328 331 331 329 329 328 328 327 326 325 322 321 322 323
224 224 224 224 225 226 227 227 228 228 228 228 229 231 234 236 237 238 240 241 241 242 242 242 242 241 240 240 240 241 243 248 250 250 254 262 273 276 275 278 281 288 294 295 296 297 294 287 285 290 292 293 298 302 305 305 303 304 309 313 311 311 312 313 317 321 323 327 331 336 341 342 343 340 336 336 338 338 337 336 334 330 329 331 334
229 228 227 226 227 228 228 230 231 231 232 232 233 234 236 238 240 241 242 243 243 245 245 244 244 244 244 244 244 244 246 249 252 254 256 263 274 275 274 279 281 283 285 291 299 298 297 295 296 298 293 292 296 299 303 306 310 312 312 312 313 315 316 318 326 332 338 344 348 348 346 346 348 348 345 344 345 343 341 338 336 333 333 333 332
230 230 229 229 229 229 230 231 231 232 232 234 235 236 238 239 240 241 242 243 244 245 245 245 246 246 246 246 246 246 248 250 254 259 260 262 269 272 272 278 280 280 275 282 299 296 290 291 295 296 292 289 288 291 297 304 311 310 308 313 320 323 322 327 335 344 358 359 351 343 343 345 348 350 349 345 341 339 337 336 334 331 329 327 326
231 231 231 230 230 229 229 230 231 232 232 232 233 234 235 236 237 238 239 240 242 243 245 247 247 247 247 247 247 247 247 247 252 259 259 259 267 271 268 270 275 278 275 279 295 294 285 287 290 292 291 287 285 288 292 300 306 308 312 318 321 322 325 332 338 352 7 354 344 343 347 347 346 349 346 338 334 334 333 331 328 326 323 321 320
232 231 231 230 230 229 229 230 230 230 230 230 231 231 231 231 233 234 235 237 240 242 245 246 247 248 248 247 246 247 246 248 253 256 254 255 264 270 268 267 269 272 274 276 281 274 267 282 284 286 289 289 291 289 288 297 306 312 319 320 318 322 329 336 344 7 349 341 345 350 348 345 344 345 338 332 332 331 328 326 323 323 322 322 322
230 229 229 230 230 229 229 230 230 229 230 230 230 231 231 231 232 233 235 237 240 242 244 246 247 248 248 247 245 246 248 251 255 257 257 256 260 264 266 267 269 271 271 270 272 267 265 276 279 284 287 291 298 291 287 295 300 309 319 318 321 331 338 346 20 349 336 338 352 350 344 343 339 337 333 331 333 330 329 329 329 330 330 331 331
229 228 228 229 228 228 228 229 229 229 230 230 231 232 234 235 236 238 239 241 244 246 247 248 249 247 246 245 245 248 251 253 254 255 259 261 263 266 267 270 271 271 271 267 269 274 272 270 273 281 286 289 294 291 294 302 300 310 322 319 330 342 336 6 1 335 336 352 349 343 341 337 333 333 333 333 335 335 338 340 339 340 339 339 338
226 226 226 227 226 227 227 228 228 229 230 231 232 233 235 237 237 239 241 243 246 249 249 247 246 246 245 244 245 249 253 256 253 249 255 260 261 263 263 263 265 265 267 266 268 276 275 270 271 279 286 284 282 287 299 313 318 322 328 305 337 347 319 351 339 332 335 339 334 333 332 332 333 334 334 336 340 343 346 346 345 345 345 345 344
223 225 226 225 225 226 228 228 228 229 230 231 233 233 232 232 232 232 234 237 240 242 241 240 240 241 243 243 246 250 254 257 253 247 254 259 252 254 257 251 250 253 259 263 265 269 271 270 270 277 288 285 278 283 294 310 324 328 329 304 326 328 274 335 336 328 320 323 325 328 331 335 338 337 337 341 346 349 348 348 349 349 350 350 349
225 228 228 227 226 227 229 228 228 229 230 232 232 231 229 227 225 223 224 226 230 233 234 235 237 239 241 243 247 252 254 254 253 247 245 250 246 248 255 251 243 242 255 266 269 271 270 267 267 276 288 282 273 282 286 301 329 0 0 342 269 272 282 323 331 301 316 320 319 323 332 340 340 339 343 347 349 350 349 349 349 351 354 354 353
230 231 228 227 226 228 229 228 228 229 230 231 230 229 227 226 225 224 225 224 227 232 235 237 239 241 242 245 248 251 253 249 249 249 243 245 251 247 247 251 246 243 257 266 268 272 270 264 268 277 279 262 252 252 239 287 37 50 352 335 295 280 296 316 289 281 316 314 309 317 327 336 334 337 343 348 350 349 350 353 352 354 357 357 355
232 230 227 226 226 227 228 228 228 229 230 229 229 228 227 225 225 225 227 227 230 234 236 236 238 240 242 247 250 252 255 247 240 248 248 245 253 252 248 255 254 249 255 260 263 275 274 265 266 262 247 237 234 209 182 315 352 351 335 337 335 325 335 332 315 322 322 287 308 313 313 319 326 333 337 343 348 347 350 355 358 358 357 357 356
231 229 228 227 227 226 226 227 228 228 228 228 228 228 228 228 226 225 226 228 232 234 234 235 235 239 243 246 250 250 252 247 236 245 250 242 248 254 251 253 248 237 243 264 270 272 264 244 232 222 208 199 185 205 291 308 310 315 318 319 319 319 330 333 326 336 323 292 303 305 311 320 325 332 338 342 341 344 350 355 360 358 355 355 354
231 231 230 228 227 226 225 225 226 227 227 228 227 228 228 227 225 224 225 227 229 230 230 231 232 235 239 240 244 243 241 242 237 236 238 237 243 251 250 246 236 231 255 271 259 243 237 223 208 209 216 233 256 281 294 296 290 294 300 304 314 323 334 340 329 337 330 298 289 296 311 321 319 325 338 341 336 342 350 354 358 354 353 353 353
233 232 230 228 226 225 225 225 226 226 226 226 226 227 227 226 225 225 226 226 227 226 224 225 226 228 231 235 238 237 236 239 234 227 230 234 234 232 234 238 239 239 248 249 234 227 236 235 233 237 249 263 273 280 281 273 263 270 283 294 313 335 347 335 319 332 336 312 305 300 309 319 311 309 325 333 336 344 350 354 354 350 350 351 351